Location: Czekanka
(50.4925°N, 19.2643°E)
Time: 01:26:43
(UTC+00:00)

Cosmos 372 Rocket - Pass Details

Date: 15 June 2024
Orbit: 736 x 764 km, 74.1° (Epoch: 22 July)

Event Time Altitude Azimuth Distance (km) Brightness Sun altitude
Exits shadow 00:42:18 16° 212° (SSW) 1,914 5.4 -11.7°
Maximum altitude 00:46:30 73° 296° (WNW) 803 4.1 -11.3°
Drops below altitude 10° 00:51:44 10° 21° (NNE) 2,303 8.0 -10.9°
Sets 00:54:08 0° 24° (NNE) 3,229 9.4 -10.7°
